Find Starlink 2071

NORAD ID: 47361 Int'l Des: 2021-005 Owner: SPXS Country: US Constellation: starlink operational
LEOCIRCULARSTARLINK_TYPE

当前视图

正在加载3D地球...

About Starlink 2071

Starlink 2071 (NORAD 47361) is a starlink constellation satellite (v1.0) launched Jan 20, 2021 by SPXS of US. It operates in LEO, CIRCULAR, STARLINK_TYPE orbit with a mass of 260.00 kg.

关于 Starlink 2071

正在加载描述...

即将过境

Passes for default location (London). Set your location on the main map for personalized predictions.

高度历史

Loading altitude history...

两行轨道根数

1 47361U 21005N 26170.25002315 .00058986 00000-0 18981-2 0 9998
2 47361 53.1580 284.9605 0000726 89.9423 160.1082 15.31690996 5708
Epoch: Jun 19, 2026 • Age: 3 hours

当前状态

高度 472.8 km
速度 7.63 km/s
星下点 34.38°N, 36.71°E
发射日期 Jan 20, 2021
运行时间 5.4 years
类型 internet

技术详情

分类 Payload
质量 260.00 kg
干质量 248.00 kg
总质量 260.00 kg
长度 0.20 m
直径 2.80 m
跨度 9.00 m
形状 Box + pan
制造商 SPXS
平台类型 Starlink
阶段状态 In Orbit
所有者/国家 SPXS/US

Most Searched